GW1765 Weather Reports


Display with metric or nautical units.
time (UTC)temp
F
wind
direction
speed
MPH
gust
MPH
rain 1hr
in
rain 24hr
in
rain mn
in
humidity
%
barometer
mb
20260507070047 63 353 20.0 30.0 0.00 0.00 0.00 80 1019.2
20260507065103 63 6 21.0 33.0 0.00 0.00 0.00 80 1019.0
20260507064040 63 16 21.0 34.0 0.00 0.00 0.00 80 1018.9
20260507063036 63 359 21.0 32.0 0.00 0.00 0.00 80 1019.0
20260507062055 63 350 21.0 34.0 0.00 0.00 0.00 81 1018.9
20260507061031 63 354 20.0 29.0 0.00 0.00 0.00 82 1018.9
20260507060026 63 7 21.0 29.0 0.00 0.00 0.00 82 1018.9
20260507055025 63 355 20.0 29.0 0.00 0.00 0.00 82 1018.9
20260507054019 63 337 24.0 34.0 0.00 0.00 0.00 81 1018.9
20260507053015 63 351 20.0 31.0 0.00 0.00 0.00 82 1019.0
20260507052112 63 349 19.0 27.0 0.00 0.00 0.00 82 1019.1
20260507051110 63 348 20.0 30.0 0.00 0.00 0.00 81 1019.1
20260507050107 63 345 17.0 24.0 0.00 0.00 0.00 81 1019.3
20260507045124 63 346 21.0 30.0 0.00 0.00 0.00 80 1019.2
20260507044058 63 360 21.0 32.0 0.00 0.00 0.00 80 1019.2
20260507043054 63 341 20.0 30.0 0.00 0.00 0.00 78 1019.3
20260507042051 63 5 21.0 30.0 0.00 0.00 0.00 76 1019.4
20260507041047 63 352 23.0 34.0 0.00 0.00 0.00 73 1019.5
20260507040044 63 0 21.0 30.0 0.00 0.00 0.00 73 1019.6
20260507035102 64 357 22.0 31.0 0.00 0.00 0.00 71 1019.6
20260507034037 63 356 20.0 30.0 0.00 0.00 0.00 73 1019.9
20260507033033 63 356 20.0 32.0 0.00 0.00 0.00 73 1020.0
20260507032031 64 3 21.0 35.0 0.00 0.00 0.00 71 1019.9
20260507031028 64 354 21.0 35.0 0.00 0.00 0.00 70 1020.0
20260507030043 64 345 20.0 30.0 0.00 0.00 0.00 70 1020.1
20260507025020 64 1 21.0 29.0 0.00 0.00 0.00 69 1020.3
20260507024017 64 351 19.0 30.0 0.00 0.00 0.00 69 1020.5
20260507023134 63 356 23.0 36.0 0.00 0.00 0.00 70 1020.7
20260507022111 63 347 21.0 34.0 0.00 0.00 0.00 71 1020.9
20260507021106 63 356 22.0 29.0 0.00 0.00 0.00 71 1021.0
20260507015059 63 354 20.0 36.0 0.00 0.00 0.00 71 1021.3
20260507014055 63 349 19.0 29.0 0.00 0.00 0.00 73 1021.4
20260507013112 63 353 21.0 30.0 0.00 0.00 0.00 73 1021.4
20260507012048 63 341 20.0 29.0 0.00 0.00 0.00 74 1021.4
20260507011046 63 356 21.0 34.0 0.00 0.00 0.00 72 1021.5
20260507005037 64 354 24.0 34.0 0.00 0.00 0.00 71 1022.1
20260507004033 64 9 22.0 31.0 0.00 0.00 0.00 71 1022.1
20260507003031 63 4 21.0 37.0 0.00 0.00 0.00 73 1022.4
20260507002026 63 359 21.0 29.0 0.00 0.00 0.00 72 1022.6
20260507001024 64 345 21.0 33.0 0.00 0.00 0.00 71 1022.5
20260507000019 64 348 21.0 34.0 0.00 0.00 0.00 71 1022.5
20260506235101 64 357 21.0 33.0 0.00 0.00 0.00 71 1022.5
20260506234114 64 347 20.0 32.0 0.00 0.00 0.00 73 1022.6
20260506233109 63 359 19.0 29.0 0.00 0.00 0.00 74 1022.6
20260506232106 63 343 21.0 30.0 0.00 0.00 0.00 76 1022.7
20260506231103 63 358 19.0 28.0 0.00 0.00 0.00 77 1022.7
20260506230058 63 354 21.0 33.0 0.00 0.00 0.00 78 1022.7
20260506225115 63 345 18.0 34.0 0.00 0.00 0.00 79 1022.9
20260506224052 62 4 20.0 28.0 0.00 0.00 0.00 80 1023.0
20260506223110 63 8 19.0 28.0 0.00 0.00 0.00 81 1023.1
20260506222046 62 356 18.0 26.0 0.00 0.00 0.00 82 1023.3
20260506221042 62 356 20.0 28.0 0.00 0.00 0.00 83 1023.3
20260506220038 62 0 18.0 29.0 0.00 0.00 0.00 84 1023.4
20260506215034 62 347 18.0 24.0 0.00 0.00 0.00 85 1023.4
20260506214032 62 5 20.0 30.0 0.00 0.00 0.00 85 1023.4
20260506213027 61 13 18.0 30.0 0.00 0.00 0.00 86 1023.6
20260506212025 61 5 18.0 27.0 0.00 0.00 0.00 87 1023.7
20260506211022 61 359 17.0 26.0 0.00 0.00 0.00 88 1023.8
20260506210016 61 17 17.0 28.0 0.00 0.00 0.00 89 1023.8
20260506205134 61 0 14.0 21.0 0.00 0.00 0.00 90 1023.9
20260506204110 61 6 16.0 23.0 0.00 0.00 0.00 91 1023.9
20260506203108 61 354 17.0 27.0 0.00 0.00 0.00 91 1024.0
20260506202103 61 344 16.0 21.0 0.00 0.00 0.00 91 1024.0
20260506201059 60 9 16.0 24.0 0.00 0.00 0.00 91 1024.0
20260506200057 60 360 17.0 23.0 0.00 0.00 0.00 92 1023.9
20260506195054 60 353 18.0 24.0 0.00 0.00 0.00 92 1023.9
20260506194049 60 1 16.0 21.0 0.00 0.00 0.00 92 1023.8
20260506193045 60 343 17.0 22.0 0.00 0.00 0.00 92 1023.8
20260506192044 60 356 16.0 24.0 0.00 0.00 0.00 92 1023.9
20260506191038 60 343 16.0 25.0 0.00 0.00 0.00 91 1023.9
20260506190035 60 359 15.0 23.0 0.00 0.00 0.00 90 1023.9
20260506185033 60 343 16.0 24.0 0.00 0.00 0.00 89 1024.0
20260506184048 60 351 17.0 23.0 0.00 0.00 0.00 88 1024.1
20260506183025 60 18 16.0 26.0 0.00 0.00 0.00 88 1024.1
20260506182041 60 312 16.0 21.0 0.00 0.00 0.00 88 1024.2
20260506181018 60 347 15.0 23.0 0.00 0.00 0.00 87 1024.3
20260506180117 60 8 15.0 21.0 0.00 0.00 0.00 87 1024.2
20260506175111 60 9 16.0 21.0 0.00 0.00 0.00 86 1024.2
20260506174110 60 348 16.0 23.0 0.00 0.00 0.00 86 1024.3
20260506173105 60 356 17.0 23.0 0.00 0.00 0.00 85 1024.4
20260506172100 60 8 19.0 28.0 0.00 0.00 0.00 86 1024.4
20260506171119 60 355 18.0 30.0 0.00 0.00 0.00 87 1024.4
20260506170053 60 355 15.0 26.0 0.00 0.00 0.00 88 1024.3
20260506165049 60 353 16.0 23.0 0.00 0.00 0.00 88 1024.2
20260506164047 60 351 15.0 21.0 0.00 0.00 0.00 87 1024.3
20260506163042 60 7 13.0 20.0 0.00 0.00 0.00 86 1024.4
20260506162039 60 342 14.0 22.0 0.00 0.00 0.00 86 1024.5
20260506161035 60 360 14.0 23.0 0.00 0.00 0.00 85 1024.8
20260506160034 61 16 15.0 23.0 0.00 0.00 0.00 86 1025.0
20260506155028 60 8 15.0 22.0 0.00 0.00 0.00 86 1025.1
20260506154106 60 3 14.0 21.0 0.00 0.00 0.00 86 1025.2
20260506153023 60 354 15.0 24.0 0.00 0.00 0.00 87 1025.3
20260506152018 60 350 15.0 25.0 0.00 0.00 0.00 88 1025.5
20260506151116 60 3 14.0 23.0 0.00 0.00 0.00 87 1025.6
20260506150111 60 353 13.0 18.0 0.00 0.00 0.00 86 1025.7
20260506145109 60 353 14.0 23.0 0.00 0.00 0.00 85 1026.0
20260506144124 61 8 14.0 22.0 0.00 0.00 0.00 85 1026.1
20260506143101 61 14 16.0 27.0 0.00 0.00 0.00 84 1026.2
20260506142059 61 353 15.0 23.0 0.00 0.00 0.00 84 1026.2
20260506141116 61 346 15.0 21.0 0.00 0.00 0.00 84 1026.4
20260506140050 61 356 14.0 27.0 0.00 0.00 0.00 84 1026.4
20260506135046 61 17 17.0 24.0 0.00 0.00 0.00 84 1026.4
20260506134043 61 357 14.0 22.0 0.00 0.00 0.00 85 1026.4
20260506133100 61 14 16.0 26.0 0.00 0.00 0.00 86 1026.4
20260506132057 61 12 15.0 23.0 0.00 0.00 0.00 86 1026.4
20260506131031 61 356 15.0 23.0 0.00 0.00 0.00 86 1026.5
20260506130028 61 347 12.0 21.0 0.00 0.00 0.00 87 1026.4
20260506125024 61 9 16.0 24.0 0.00 0.00 0.00 87 1026.6
20260506124021 61 346 11.0 18.0 0.00 0.00 0.00 87 1026.7
20260506123017 61 342 14.0 21.0 0.00 0.00 0.00 87 1026.7
20260506122116 61 340 13.0 17.0 0.00 0.00 0.00 87 1026.7
20260506121111 61 359 15.0 23.0 0.00 0.00 0.00 86 1026.8
20260506120109 61 5 13.0 19.0 0.00 0.00 0.00 86 1026.7
20260506115104 61 5 12.0 18.0 0.00 0.00 0.00 86 1026.7
20260506114102 61 0 13.0 20.0 0.00 0.00 0.00 85 1026.7
20260506113058 61 8 14.0 23.0 0.00 0.00 0.00 86 1026.7
20260506112054 61 359 12.0 21.0 0.00 0.00 0.00 86 1026.7
20260506111051 61 356 13.0 20.0 0.00 0.00 0.00 86 1026.8
20260506110046 60 335 10.0 16.0 0.00 0.00 0.00 86 1026.8
20260506105043 60 23 11.0 16.0 0.00 0.00 0.00 86 1026.8
20260506104039 60 5 10.0 16.0 0.00 0.00 0.00 86 1026.9
20260506103035 60 351 10.0 17.0 0.00 0.00 0.00 85 1026.8
20260506102034 60 12 10.0 14.0 0.00 0.00 0.00 85 1026.8
20260506101049 60 348 9.0 13.0 0.00 0.00 0.00 85 1026.8
20260506100025 60 2 10.0 15.0 0.00 0.00 0.00 84 1026.7
20260506095021 60 7 9.0 12.0 0.00 0.00 0.00 83 1026.8
20260506094018 60 356 8.0 12.0 0.00 0.00 0.00 83 1026.8
20260506093139 60 3 8.0 13.0 0.00 0.00 0.00 82 1026.8
20260506092111 60 20 8.0 13.0 0.00 0.00 0.00 82 1026.9
20260506091108 60 359 7.0 11.0 0.00 0.00 0.00 81 1026.8
20260506090106 60 358 6.0 11.0 0.00 0.00 0.00 80 1026.8
20260506085101 59 1 6.0 10.0 0.00 0.00 0.00 80 1026.9
20260506084119 59 27 6.0 8.0 0.00 0.00 0.00 80 1026.9
20260506083055 59 3 7.0 9.0 0.00 0.00 0.00 80 1027.1
20260506082052 59 350 6.0 9.0 0.00 0.00 0.00 82 1027.2
20260506081049 58 352 5.0 11.0 0.00 0.00 0.00 83 1027.2
20260506073116 58 8 4.0 6.0 0.00 0.00 0.00 85 1027.3
20260506072029 59 353 4.0 6.0 0.00 0.00 0.00 86 1027.3
20260506071026 59 5 5.0 8.0 0.00 0.00 0.00 86 1027.3